Marianna, WV

10:08 PM EDT on September 26, 2016 (GMT -0400)
Pineville

Weather History for KI16 - September, 2013

Change the Weather History Date:

Thursday, September 19, 2013

  Actual Average (KBKW) Record (KBKW)
Temperature  
Mean Temperature 66 °F 62 °F  
Max Temperature 69 °F 72 °F 89 °F (1953)
Min Temperature 63 °F 52 °F 31 °F (1959)
Degree Days  
Heating Degree Days 0 4  
Month to date heating degree days 45  
Since 1 July heating degree days 66  
Cooling Degree Days 1 1  
Month to date cooling degree days 48  
Year to date cooling degree days 541  
Growing Degree Days 16 (Base 50)    
Moisture  
Dew Point 66 °F    
Average Humidity 99    
Maximum Humidity 100    
Minimum Humidity 92    
Precipitation  
Precipitation 0.00 in 0.10 in 1.48 in (1942)
Month to date precipitation 1.96  
Year to date precipitation 31.62  
Snow  
Snow 0.00 in - - ()
Month to date snowfall  
Since 1 September snowfall  
Snow Depth -    
Sea Level Pressure  
Sea Level Pressure 30.21 in    
Wind  
Wind Speed - (North)    
Max Wind Speed -    
Max Gust Speed -    
Visibility 4 miles    
Events Rain    
T = Trace of Precipitation, MM = Missing Value Source: NWS Daily Summary

Daily Weather History Graph

Daily Weather History Graph

Search for Another Location

Airport or City:

Trip Planner

Search our weather history database for the weather conditions in past years. The results will help you decide how hot, cold, wet, or windy it might be!

Date:

Astronomy

Sep. 19, 2013 Rise Set
Actual Time 7:11 AM EDT 7:27 PM EDT
Civil Twilight 6:45 AM EDT 7:53 PM EDT
Nautical Twilight 6:14 AM EDT 8:24 PM EDT
Astronomical Twilight 5:43 AM EDT 8:55 PM EDT
Moon 7:26 PM EDT (9/19) 7:18 AM EDT (9/19)
Length of Visible Light 13h 08m
Length of Day
12h 15m
Full, 100% of the Moon is Illuminated
Sep 19
Full
Sep 26
Last Quarter
Oct 4
New
Oct 11
First Quarter
Oct 18
Full

Hourly Weather History & Observations

Time (EDT) Temp. Dew Point Humidity Pressure Visibility Wind Dir Wind Speed Gust Speed Precip Events Conditions
12:15 AM 63.7 °F 63.7 °F 100% 30.24 in 4.0 mi North - - N/A   Overcast
12:35 AM 63.5 °F 63.5 °F 100% 30.24 in 3.0 mi North - - N/A   Light Drizzle
12:55 AM 63.5 °F 63.5 °F 100% 30.23 in 4.0 mi North - - N/A   Overcast
1:15 AM 63.5 °F 63.5 °F 100% 30.23 in 3.0 mi North - - N/A   Overcast
1:35 AM 63.5 °F 63.5 °F 100% 30.23 in 3.0 mi North - - N/A   Overcast
1:55 AM 63.5 °F 63.5 °F 100% 30.23 in 3.0 mi North - - N/A   Overcast
2:15 AM 63.5 °F 63.5 °F 100% 30.23 in 3.0 mi North - - N/A   Overcast
2:35 AM 63.5 °F 63.5 °F 100% 30.23 in 3.0 mi North - - N/A   Overcast
2:55 AM 63.5 °F 63.5 °F 100% 30.23 in 4.0 mi North - - N/A   Overcast
3:15 AM 63.5 °F 63.5 °F 100% 30.22 in 4.0 mi North - - N/A   Overcast
3:35 AM 63.5 °F 63.5 °F 100% 30.22 in 4.0 mi North - - N/A   Overcast
3:55 AM 63.5 °F 63.5 °F 100% 30.22 in 4.0 mi North - - N/A   Overcast
4:15 AM 63.5 °F 63.5 °F 100% 30.22 in 4.0 mi North - - N/A   Overcast
4:35 AM 63.5 °F 63.5 °F 100% 30.22 in 4.0 mi North - - N/A   Overcast
4:55 AM 63.5 °F 63.5 °F 100% 30.21 in 5.0 mi North - - N/A   Overcast
5:15 AM 63.5 °F 63.5 °F 100% 30.21 in 4.0 mi North - - N/A   Overcast
5:35 AM 63.5 °F 63.5 °F 100% 30.21 in 4.0 mi North - - N/A   Overcast
5:55 AM 63.5 °F 63.5 °F 100% 30.21 in 4.0 mi North - - N/A   Overcast
6:15 AM 63.5 °F 63.5 °F 100% 30.21 in 4.0 mi North - - N/A   Overcast
6:35 AM 63.5 °F 63.5 °F 100% 30.22 in 4.0 mi North - - N/A   Overcast
6:55 AM 63.5 °F 63.5 °F 100% 30.22 in 4.0 mi North - - N/A   Overcast
7:15 AM 63.5 °F 63.5 °F 100% 30.23 in 4.0 mi North - - N/A Rain Light Rain
7:35 AM 63.5 °F 63.5 °F 100% 30.23 in 3.0 mi North - - N/A   Light Drizzle
7:55 AM 63.5 °F 63.5 °F 100% 30.23 in 3.0 mi North - - N/A   Overcast
8:15 AM 63.7 °F 63.7 °F 100% 30.23 in 4.0 mi North - - N/A   Overcast
8:35 AM 64.0 °F 64.0 °F 100% 30.23 in 5.0 mi North - - N/A   Overcast
8:55 AM 64.8 °F 64.8 °F 100% 30.24 in 7.0 mi North - - N/A   Overcast
9:15 AM 64.6 °F 64.6 °F 100% 30.24 in 3.0 mi North - - N/A Rain Light Rain
9:35 AM 65.1 °F 65.1 °F 100% 30.24 in 5.0 mi North - - N/A   Overcast
9:55 AM 65.7 °F 65.5 °F 99% 30.25 in 7.0 mi North - - N/A   Overcast
10:15 AM 66.0 °F 65.3 °F 98% 30.25 in 7.0 mi North - - N/A   Overcast
10:35 AM 66.4 °F 65.3 °F 96% 30.25 in 7.0 mi North - - N/A   Overcast
10:55 AM 67.1 °F 66.0 °F 96% 30.25 in 7.0 mi North - - N/A   Overcast
11:15 AM 67.8 °F 65.5 °F 92% 30.25 in 10.0 mi North - - N/A   Overcast
11:35 AM 68.2 °F 66.0 °F 93% 30.25 in 10.0 mi North - - N/A   Overcast
11:55 AM 67.3 °F 66.2 °F 96% 30.25 in 2.0 mi North - - N/A   Heavy Drizzle
12:15 PM 67.1 °F 66.4 °F 98% 30.25 in 3.0 mi North - - N/A   Drizzle
12:35 PM 67.1 °F 66.7 °F 99% 30.24 in 3.0 mi North - - N/A Rain Light Rain
12:55 PM 67.8 °F 67.1 °F 98% 30.24 in 5.0 mi North - - N/A   Overcast
1:15 PM 68.2 °F 67.1 °F 96% 30.23 in 7.0 mi North - - N/A   Overcast
1:35 PM 68.9 °F 67.8 °F 96% 30.22 in 7.0 mi North - - N/A   Overcast
1:55 PM 68.9 °F 67.1 °F 94% 30.22 in 7.0 mi North - - N/A   Overcast
2:15 PM 69.3 °F 67.1 °F 93% 30.21 in 10.0 mi North - - N/A   Overcast
2:35 PM 68.9 °F 67.6 °F 96% 30.21 in 10.0 mi North - - N/A   Overcast
2:55 PM 69.3 °F 67.5 °F 94% 30.22 in 7.0 mi North - - N/A Rain Light Rain
3:15 PM 67.8 °F 67.1 °F 98% 30.21 in 1.0 mi North - - N/A Rain Heavy Rain
3:35 PM 67.5 °F 67.5 °F 100% 30.21 in 1.5 mi North - - N/A Rain Rain
3:55 PM 67.5 °F 67.5 °F 100% 30.20 in 2.5 mi North - - N/A Rain Light Rain
4:15 PM 68.0 °F 68.0 °F 100% 30.20 in 5.0 mi North - - N/A Rain Rain
4:35 PM 67.6 °F 67.6 °F 100% 30.20 in 1.8 mi North - - N/A Rain Light Rain
4:55 PM 68.4 °F 68.4 °F 100% 30.19 in 10.0 mi North - - N/A   Overcast
5:15 PM 69.1 °F 69.1 °F 100% 30.18 in 10.0 mi North - - N/A   Overcast
5:35 PM 69.1 °F 68.5 °F 98% 30.18 in 10.0 mi North - - N/A   Overcast
5:55 PM 69.3 °F 68.9 °F 99% 30.19 in 7.0 mi North - - N/A   Overcast
6:15 PM 68.9 °F 68.9 °F 100% 30.18 in 5.0 mi North - - N/A   Overcast
6:35 PM 69.1 °F 69.1 °F 100% 30.18 in 5.0 mi North - - N/A   Overcast
6:55 PM 68.9 °F 68.9 °F 100% 30.18 in 3.0 mi North - - N/A   Overcast
7:15 PM 68.4 °F 68.4 °F 100% 30.18 in 4.0 mi North - - N/A   Overcast
7:35 PM 68.2 °F 68.2 °F 100% 30.17 in 3.0 mi North - - N/A   Overcast
7:55 PM 68.0 °F 68.0 °F 100% 30.17 in 3.0 mi North - - N/A   Overcast
8:15 PM 67.6 °F 67.6 °F 100% 30.17 in 3.0 mi North - - N/A   Overcast
8:35 PM 67.3 °F 67.3 °F 100% 30.16 in 3.0 mi North - - N/A   Overcast
8:55 PM 67.1 °F 67.1 °F 100% 30.16 in 2.5 mi North - - N/A   Overcast
9:15 PM 66.7 °F 66.7 °F 100% 30.16 in 2.5 mi North - - N/A   Overcast
9:35 PM 66.6 °F 66.6 °F 100% 30.17 in 1.8 mi North - - N/A   Overcast
9:55 PM 67.1 °F 67.1 °F 100% 30.16 in 3.0 mi North - - N/A   Overcast
10:15 PM 67.1 °F 67.1 °F 100% 30.16 in 3.0 mi North - - N/A   Overcast
10:35 PM 66.6 °F 66.6 °F 100% 30.16 in 1.8 mi North - - N/A   Overcast
10:55 PM 66.6 °F 66.6 °F 100% 30.16 in 1.8 mi North - - N/A   Overcast
11:15 PM 66.4 °F 66.4 °F 100% 30.16 in 1.5 mi North - - N/A   Overcast
11:35 PM 66.0 °F 66.0 °F 100% 30.16 in 0.8 mi North - - N/A   Overcast
11:55 PM 65.7 °F 65.7 °F 100% 30.16 in 0.8 mi North - - N/A   Overcast